When you browse on this site, cookies collect data to enhance your experience and personalize the content and advertising you see.
Visit our Privacy Policy to learn more. By continuing to use the site, you agree to this use of cookies and data.
  • In Schweiz
  • Länderverzeichnis
  • Für 7 Tage
  • Wassertemperatur
  • Satellitenkarten
  • Wetterkarte
  • Widgets
  • user-avatar
    Anmelden

    Stündliche Wetter Tomashivka

    Heute, 21 Februar, Donnerstag

    Zeit Temperatur Niederschläge Wind Luftdruck Luftfeuchtigkeit
    00:00 +1°C° 0 mm 6 m/S 735 mmHg 78%
    01:00 +1°C° 0 mm 6 m/S 735 mmHg 79%
    02:00 -1°C° 0 mm 6 m/S 735 mmHg 79%
    03:00 -1°C° 0 mm 6 m/S 736 mmHg 80%
    04:00 -1°C° 0 mm 6 m/S 736 mmHg 81%
    05:00 -1°C° 0 mm 6 m/S 736 mmHg 81%
    06:00 -2°C° 0 mm 6 m/S 736 mmHg 83%
    07:00 -2°C° 0 mm 6 m/S 736 mmHg 84%
    08:00 -2°C° 0 mm 6 m/S 737 mmHg 86%
    09:00 -1°C° 0 mm 7 m/S 737 mmHg 80%
    10:00 -1°C° 0 mm 7 m/S 737 mmHg 74%
    11:00 0°C° 0 mm 7 m/S 737 mmHg 69%
    12:00 0°C° 0 mm 7 m/S 737 mmHg 69%
    13:00 +2°C° 0 mm 7 m/S 737 mmHg 70%
    14:00 +2°C° 0 mm 7 m/S 737 mmHg 71%
    15:00 +2°C° 0.1 mm 6 m/S 737 mmHg 75%
    16:00 +2°C° 0.1 mm 6 m/S 736 mmHg 79%
    17:00 +2°C° 0.1 mm 5 m/S 736 mmHg 83%
    18:00 +2°C° 0.1 mm 5 m/S 736 mmHg 85%
    19:00 +3°C° 0.1 mm 4 m/S 736 mmHg 87%
    20:00 +3°C° 0.1 mm 4 m/S 736 mmHg 88%
    21:00 +3°C° 0.1 mm 4 m/S 736 mmHg 87%
    22:00 +3°C° 0.1 mm 4 m/S 736 mmHg 86%
    23:00 +3°C° 0.1 mm 4 m/S 736 mmHg 84%

    Morgen, 22 Februar, Freitag

    Zeit Temperatur Niederschläge Wind Luftdruck Luftfeuchtigkeit
    00:00 +1°C° 0.5 mm 4 m/S 735 mmHg 84%
    01:00 +1°C° 0.5 mm 4 m/S 735 mmHg 83%
    02:00 +1°C° 0.5 mm 4 m/S 735 mmHg 83%
    03:00 +1°C° 0.7 mm 4 m/S 734 mmHg 85%
    04:00 +1°C° 0.7 mm 4 m/S 734 mmHg 86%
    05:00 +1°C° 0.7 mm 4 m/S 734 mmHg 88%
    06:00 -1°C° 0.5 mm 5 m/S 734 mmHg 89%
    07:00 -3°C° 0.5 mm 6 m/S 734 mmHg 89%
    08:00 -4°C° 0.5 mm 7 m/S 734 mmHg 90%
    09:00 -6°C° 0.3 mm 7 m/S 735 mmHg 87%
    10:00 -6°C° 0.3 mm 7 m/S 735 mmHg 84%
    11:00 -7°C° 0.3 mm 8 m/S 736 mmHg 81%
    12:00 -7°C° 0.1 mm 7 m/S 737 mmHg 75%
    13:00 -7°C° 0.1 mm 7 m/S 738 mmHg 70%
    14:00 -7°C° 0.1 mm 7 m/S 739 mmHg 64%
    15:00 -7°C° 0 mm 7 m/S 739 mmHg 63%
    16:00 -8°C° 0 mm 7 m/S 740 mmHg 62%
    17:00 -9°C° 0 mm 7 m/S 740 mmHg 61%
    18:00 -9°C° 0 mm 7 m/S 741 mmHg 61%
    19:00 -9°C° 0 mm 7 m/S 742 mmHg 60%
    20:00 -11°C° 0 mm 7 m/S 742 mmHg 59%
    21:00 -11°C° 0 mm 7 m/S 743 mmHg 59%
    22:00 -11°C° 0 mm 7 m/S 743 mmHg 60%
    23:00 -12°C° 0 mm 7 m/S 744 mmHg 60%

    übermorgen, 23 Februar, Samstag

    Zeit Temperatur Niederschläge Wind Luftdruck Luftfeuchtigkeit
    00:00 -12°C° 0 mm 7 m/S 744 mmHg 60%
    01:00 -12°C° 0 mm 7 m/S 744 mmHg 60%
    02:00 -12°C° 0 mm 7 m/S 745 mmHg 61%
    03:00 -12°C° 0 mm 7 m/S 745 mmHg 62%
    04:00 -12°C° 0 mm 7 m/S 745 mmHg 63%
    05:00 -12°C° 0 mm 7 m/S 745 mmHg 65%
    06:00 -12°C° 0 mm 7 m/S 746 mmHg 65%
    07:00 -12°C° 0 mm 7 m/S 746 mmHg 66%
    08:00 -12°C° 0 mm 7 m/S 747 mmHg 67%
    09:00 -12°C° 0 mm 7 m/S 747 mmHg 65%
    10:00 -11°C° 0 mm 6 m/S 747 mmHg 63%
    11:00 -10°C° 0 mm 6 m/S 747 mmHg 61%
    12:00 -10°C° 0 mm 6 m/S 747 mmHg 60%
    13:00 -10°C° 0 mm 6 m/S 747 mmHg 60%
    14:00 -9°C° 0 mm 6 m/S 747 mmHg 59%
    15:00 -9°C° 0 mm 6 m/S 747 mmHg 61%
    16:00 -9°C° 0 mm 6 m/S 747 mmHg 62%
    17:00 -10°C° 0 mm 6 m/S 747 mmHg 63%
    18:00 -10°C° 0 mm 6 m/S 747 mmHg 65%
    19:00 -10°C° 0 mm 5 m/S 748 mmHg 67%
    20:00 -11°C° 0 mm 5 m/S 748 mmHg 68%
    21:00 -11°C° 0 mm 5 m/S 748 mmHg 68%
    22:00 -10°C° 0 mm 4 m/S 748 mmHg 68%
    23:00 -10°C° 0 mm 4 m/S 748 mmHg 68%

    24 Februar, Sonntag

    Zeit Temperatur Niederschläge Wind Luftdruck Luftfeuchtigkeit
    00:00 -9°C° 0 mm 3 m/S 748 mmHg 69%
    01:00 -9°C° 0 mm 3 m/S 748 mmHg 70%
    02:00 -10°C° 0 mm 3 m/S 748 mmHg 71%
    03:00 -10°C° 0 mm 3 m/S 748 mmHg 72%
    04:00 -10°C° 0 mm 3 m/S 747 mmHg 73%
    05:00 -10°C° 0 mm 3 m/S 747 mmHg 74%
    06:00 -10°C° 0 mm 3 m/S 747 mmHg 72%
    07:00 -10°C° 0 mm 3 m/S 747 mmHg 71%
    08:00 -10°C° 0 mm 3 m/S 747 mmHg 69%
    09:00 -8°C° 0 mm 3 m/S 747 mmHg 62%
    10:00 -7°C° 0 mm 3 m/S 747 mmHg 56%
    11:00 -7°C° 0 mm 4 m/S 747 mmHg 50%
    12:00 -5°C° 0 mm 4 m/S 747 mmHg 47%
    13:00 -5°C° 0 mm 4 m/S 746 mmHg 44%
    14:00 -4°C° 0 mm 4 m/S 746 mmHg 41%
    15:00 -4°C° 0 mm 4 m/S 745 mmHg 45%
    16:00 -4°C° 0 mm 4 m/S 745 mmHg 49%
    17:00 -4°C° 0 mm 4 m/S 744 mmHg 54%
    18:00 -4°C° 0 mm 4 m/S 744 mmHg 58%
    19:00 -5°C° 0 mm 4 m/S 744 mmHg 61%
    20:00 -5°C° 0 mm 4 m/S 744 mmHg 65%
    21:00 -4°C° 0 mm 3 m/S 743 mmHg 63%
    22:00 -4°C° 0 mm 3 m/S 743 mmHg 61%
    23:00 -4°C° 0 mm 3 m/S 743 mmHg 59%

    25 Februar, Montag

    Zeit Temperatur Niederschläge Wind Luftdruck Luftfeuchtigkeit
    00:00 -4°C° 0 mm 3 m/S 742 mmHg 59%
    01:00 -3°C° 0 mm 2 m/S 742 mmHg 59%
    02:00 -3°C° 0 mm 2 m/S 741 mmHg 59%
    03:00 -3°C° 0 mm 2 m/S 741 mmHg 61%
    04:00 -3°C° 0 mm 2 m/S 740 mmHg 63%
    05:00 -4°C° 0 mm 3 m/S 740 mmHg 65%
    06:00 -4°C° 0 mm 3 m/S 739 mmHg 71%
    07:00 -4°C° 0 mm 3 m/S 739 mmHg 77%
    08:00 -4°C° 0 mm 3 m/S 739 mmHg 83%
    09:00 -3°C° 0.3 mm 4 m/S 739 mmHg 85%
    10:00 -3°C° 0.3 mm 4 m/S 738 mmHg 88%
    11:00 -3°C° 0.3 mm 4 m/S 738 mmHg 90%
    12:00 -2°C° 0.3 mm 5 m/S 738 mmHg 90%
    13:00 -2°C° 0.3 mm 5 m/S 738 mmHg 90%
    14:00 -2°C° 0.3 mm 6 m/S 738 mmHg 89%
    15:00 -2°C° 0.1 mm 7 m/S 738 mmHg 88%
    16:00 -2°C° 0.1 mm 8 m/S 738 mmHg 86%
    17:00 -2°C° 0.1 mm 8 m/S 738 mmHg 85%
    18:00 -2°C° 0 mm 8 m/S 739 mmHg 84%
    19:00 -2°C° 0 mm 7 m/S 739 mmHg 82%
    20:00 -3°C° 0 mm 7 m/S 740 mmHg 81%
    21:00 -3°C° 0 mm 7 m/S 740 mmHg 80%
    22:00 -3°C° 0 mm 7 m/S 740 mmHg 79%
    23:00 -4°C° 0 mm 7 m/S 740 mmHg 78%

    26 Februar, Dienstag

    Zeit Temperatur Niederschläge Wind Luftdruck Luftfeuchtigkeit
    00:00 -4°C° 0 mm 6 m/S 740 mmHg 81%
    01:00 -4°C° 0 mm 6 m/S 740 mmHg 83%
    02:00 -4°C° 0 mm 6 m/S 740 mmHg 86%
    03:00 -4°C° 0 mm 6 m/S 739 mmHg 87%
    04:00 -4°C° 0 mm 6 m/S 739 mmHg 88%
    05:00 -4°C° 0 mm 6 m/S 739 mmHg 89%
    06:00 -4°C° 0 mm 6 m/S 738 mmHg 88%
    07:00 -4°C° 0 mm 6 m/S 738 mmHg 86%
    08:00 -4°C° 0 mm 6 m/S 737 mmHg 84%
    09:00 -4°C° 0 mm 6 m/S 737 mmHg 82%
    10:00 -3°C° 0 mm 7 m/S 736 mmHg 81%
    11:00 -2°C° 0 mm 7 m/S 736 mmHg 79%
    12:00 -2°C° 0 mm 7 m/S 735 mmHg 79%
    13:00 -2°C° 0 mm 7 m/S 735 mmHg 79%
    14:00 -1°C° 0 mm 7 m/S 735 mmHg 79%
    15:00 -1°C° 0 mm 7 m/S 734 mmHg 80%
    16:00 -1°C° 0 mm 7 m/S 734 mmHg 80%
    17:00 -1°C° 0 mm 7 m/S 733 mmHg 81%
    18:00 -1°C° 0 mm 7 m/S 733 mmHg 82%
    19:00 -2°C° 0 mm 7 m/S 733 mmHg 84%
    20:00 -2°C° 0 mm 7 m/S 732 mmHg 85%
    21:00 -1°C° 0.1 mm 8 m/S 731 mmHg 86%
    22:00 -1°C° 0.1 mm 8 m/S 730 mmHg 86%
    23:00 -1°C° 0.1 mm 9 m/S 729 mmHg 87%
    Mehr zeigen